Terminal Aerodrome Forecast
Issued by NWS

Home | Current Version | Previous Version | Text Only | Print | Product List | Glossary On
Versions: 1 2 3 4 5 6 7 8 9 10 11 12 13 14 15 16
000
FTUS44 KHGX 192340
TAFUTS
TAF
KUTS 192340Z 2000/2024 11005KT P6SM SCT100 BKN200
     FM200700 11005KT P6SM SCT025 BKN090 OVC120
     FM201500 12009KT P6SM VCSH BKN025
     FM201800 13006KT P6SM OVC030 PROB30 2018/2024 P6SM TS OVC025CB=

USA.gov is the U.S. government's official web portal to all federal, state and local government web resources and services.